Powrót do katalogu

TIROS 3

AktywnyPogodaLEO
NORAD 162·PAYLOAD·🇺🇸 United States

Wystrzelony Jul 12, 1961 z Cape Canaveral Space Force Station

Loading…

Następne Przeloty (najbliższe 24 godziny)

TLE

ŚwieżeSource: Space-Track

Epoka: Sep 5, 2026, 08:43 UTC

1 00162U 61017A   26248.36384632 -.00000072  00000-0  25938-4 0  9992
2 00162  47.9009   4.2523 0044069 312.2615  47.4545 14.45416303403376

Śledź TIROS 3 w czasie rzeczywistym z AllMySat

Download on the App Store